Track STARLINK-1091 now! 10-day predictions STARLINK-1091 is classified as:
1 44940U 20001AC 21024.92563129 -.00001467 00000-0 -79572-4 0 9994 2 44940 53.0365 80.2763 0001232 88.4154 271.6976 15.06427968 58301